COSMOS 2491 DEB *, 45128

Orbit data source: Space-Track

COSMOS 2491 DEB *, 45128 is space debris in LEO originally from a launch on Wed, 25 Dec 2013 UTC launched from the Plesetsk Missile And Space Complex (PKMTR). Debris objects in space refer to the collection of defunct objects orbiting the Earth. Examples of debris include non-operational satellites, rocket bodies, and fragments generated from explosions, collisions, or faulty payload assembly.

Loading next visibility...
Identifier
45128, 2013-076AA
Orbit
LEO
Country
Flag of CISCIS
Related business
Manufacturer
TsNIIKhM
Mission
Spacecraft
Bus & Motor
Unknown
Mass
Unknown
Launch date (UTC)
2013-12-25 (12 years ago)
Launch vehicle
Unknown
Launch site
Plesetsk Missile And Space Complex (PKMTR)
Object type
Payload
Rocket body
Debris
Shape & HBR
Unknown shape, 0.1 m
Radar Cross Section
Small (<0.1 m²)

Expand to show TLE details & history
Last TLE update: 3 days ago

TLE from 3 days ago
0 COSMOS 2491 DEB *
1 45128U 13076AA  25351.25559981  .00005417  00000-0  16696-2 0  9994
2 45128  81.2094 186.3534 0021261  50.0966 310.2086 14.41219308 35825
Epoch: 2025-12-17T06:08Z
TLE epoch observation values (Epoch: 2025-12-17T06:08:03.823Z)
Latitude
-0.00007°
Longitude
8.20938°
Altitude
747.641 km
Speed
7.486 km/s
True Right ascension
12h 25m 24s
True Declination
0° 00' 00"
Sunlit
Object was in daylight at epoch
Visualization orbit readout
Latitude
Unknown
Longitude
Unknown
Altitude
Unknown
Speed
Unknown
Apparent Right ascension
Unknown
Apparent Declination
Unknown
Sunlit
N/A
Visualization observer readout
Local Sidereal Time
16:23:30
Azimuth
Unknown
Elevation
Unknown
Doppler factor
Unknown
Orbital elements
Apogee altitude
766.765 km
Perigee altitude
736.448 km
Semi-major axis
7,129.744 km
Eccentricity
0.00213
Inclination
81.2094°
RAAN
186.3534°
Arg. of periapsis
50.0966°
True anomaly
310.02222°
Mean anomaly
310.2086°
Eccentric anomaly
310.11544°
Mean motion
3.60522 °/min
Orbital period
99.86 mins
BSTAR
0.0016696
Loading maneuver chart data...
Computing Atmospheric mass density...
Loading historical data...
Loading historical data...
Loading historical data...
Loading historical data...
Loading historical data...
Loading historical data...
Loading historical data...

Documentation

Showing up to 5 results
|